Temp_Advection
nan nan nan nan nan nan nan nan nan nan nan nan nan nan nan nan nan nan nan nan nan nan
nan -0 -0 -0 -0 -0 -0 -0 -0 0 -0 -0 1 1 -0 -0 -0 0 0 -0 -0 nan
nan 0 -0 -0 -0 -0 -0 0 0 -0 -0 -0 -0 -1 -1 -0 -0 -0 0 -0 -0 nan
nan -0 0 -0 0 0 0 0 -0 -1 -0 -0 -0 0 0 0 1 1 1 0 0 nan
nan 0 0 0 0 0 -0 -0 -0 -0 -0 0 0 1 1 0 0 0 0 0 0 nan
nan 0 -0 0 -0 -0 -0 -0 -0 -0 0 0 0 0 0 1 1 0 0 0 0 nan
nan -0 -0 -0 -0 -0 0 -0 -0 -0 -0 0 0 0 0 0 0 0 0 0 -0 nan
nan -0 -0 -0 -0 -0 -0 -0 0 0 -0 -0 0 0 0 0 0 0 -0 -0 -0 nan
nan -0 -0 -0 -0 -0 -0 -0 -0 -0 0 0 0 0 0 0 0 0 -0 -1 -0 nan
nan -1 -1 -0 -0 -0 -0 -0 -0 -0 -0 -0 0 1 0 0 -0 -0 0 -0 -0 nan
nan -0 -1 -1 -1 -1 -1 -1 -1 -0 0 -0 -0 0 0 0 -0 -0 0 0 0 nan
nan -1 -1 -1 -1 -1 -1 -1 -1 -1 -0 0 0 0 -0 -1 -0 -0 -0 -0 0 nan
nan -1 -1 -1 -1 -1 -1 -1 -2 -1 -1 -0 -0 -0 -0 -0 -1 -1 -1 -0 0 nan
nan nan nan nan nan nan nan nan nan nan nan nan nan nan nan nan nan nan nan nan nan nan
Wind_Speed
27 26 23 21 20 18 17 19 22 25 27 34 33 32 31 32 30 26 28 33 31 31
16 15 16 18 19 22 23 22 24 28 31 32 41 40 43 36 37 35 37 37 34 35
9 10 13 14 13 18 21 25 24 26 27 29 28 31 36 35 35 38 37 31 37 40
6 3 6 10 12 15 15 13 18 24 27 26 25 26 31 32 32 32 30 31 30 27
5 3 4 5 6 8 10 12 13 15 18 21 22 24 25 28 30 30 30 29 29 28
5 3 1 1 3 6 8 10 12 14 15 17 19 21 23 24 25 24 26 27 30 28
8 7 5 4 4 5 8 10 11 13 14 15 17 18 21 21 22 23 25 27 28 27
8 8 8 8 9 9 10 11 12 14 15 16 18 18 19 19 21 22 23 24 26 27
9 11 12 13 13 14 14 15 16 16 17 17 18 19 19 20 21 21 23 25 27 27
14 15 15 16 17 18 18 19 19 20 21 21 22 22 21 22 22 23 23 24 26 28
18 19 21 22 23 22 23 23 24 24 23 24 24 25 25 24 25 26 25 25 26 28
21 22 23 23 24 24 26 25 26 26 26 27 28 25 23 24 26 28 29 27 27 29
22 23 22 22 24 23 23 25 26 26 24 25 26 25 24 25 29 31 31 31 31 31
24 25 25 25 26 27 27 27 27 29 27 25 23 23 24 25 28 31 32 33 34 32
Wind_Direction
171 170 175 181 196 209 211 221 223 237 230 243 245 248 242 244 251 244 255 256 258 253
122 139 157 170 186 206 222 245 239 239 237 246 243 243 247 255 255 253 265 260 252 258
156 146 163 180 205 218 227 236 239 243 246 253 252 242 244 254 258 261 266 266 255 251
235 264 231 234 243 243 248 247 250 246 249 254 254 251 249 252 257 263 263 266 266 263
155 166 190 204 221 239 249 251 251 251 252 253 254 257 256 259 259 260 261 258 258 261
107 112 121 249 265 269 269 267 265 261 260 260 262 265 266 265 262 259 259 262 259 255
65 56 44 17 342 317 303 293 284 279 270 268 269 270 268 265 265 263 259 257 259 258
27 9 356 342 333 320 309 298 291 282 279 280 277 274 274 273 272 269 264 260 258 257
346 335 333 325 317 311 304 299 295 290 287 278 273 271 270 272 271 270 266 263 260 257
333 329 322 314 310 305 301 298 294 290 288 283 278 272 268 267 268 268 268 263 261 259
324 321 320 314 308 305 304 304 299 290 288 285 277 272 270 268 267 263 262 262 262 260
313 314 312 309 309 308 306 305 300 295 289 286 285 285 282 275 272 267 263 261 258 258
326 324 321 320 316 313 310 310 307 304 301 290 283 282 283 280 275 276 270 264 261 257
316 314 313 310 307 309 309 310 307 300 297 297 297 277 271 275 277 281 279 273 269 262
Height
1451 1454 1458 1464 1469 1474 1478 1483 1486 1490 1493 1496 1497 1498 1501 1502 1502 1503 1504 1504 1504 1503
1451 1455 1460 1465 1470 1474 1478 1482 1484 1485 1486 1488 1489 1491 1492 1495 1495 1496 1497 1497 1496 1495
1454 1458 1462 1466 1469 1471 1474 1476 1479 1480 1481 1482 1483 1485 1487 1486 1488 1487 1487 1487 1487 1487
1457 1459 1462 1464 1467 1469 1470 1471 1473 1474 1475 1476 1476 1478 1479 1480 1479 1479 1479 1480 1480 1480
1460 1462 1464 1464 1465 1467 1468 1467 1469 1469 1469 1470 1470 1472 1472 1472 1473 1472 1472 1472 1473 1472
1464 1465 1464 1464 1465 1465 1466 1465 1466 1465 1464 1465 1465 1465 1466 1465 1464 1465 1465 1465 1468 1464
1465 1465 1465 1464 1463 1463 1464 1464 1463 1461 1459 1458 1457 1457 1460 1457 1458 1458 1458 1458 1458 1458
1465 1465 1464 1463 1461 1461 1460 1460 1457 1457 1455 1451 1454 1455 1454 1451 1450 1451 1452 1452 1452 1453
1463 1463 1460 1461 1460 1460 1459 1457 1455 1452 1449 1447 1447 1447 1445 1444 1445 1447 1447 1445 1446 1444
1460 1459 1458 1458 1456 1455 1454 1451 1448 1446 1443 1441 1441 1441 1439 1438 1435 1435 1438 1440 1442 1440
1457 1456 1454 1453 1452 1448 1445 1443 1441 1439 1436 1434 1436 1435 1433 1429 1428 1428 1428 1429 1432 1433
1454 1451 1451 1450 1446 1443 1439 1436 1436 1434 1429 1427 1429 1428 1427 1424 1421 1420 1419 1419 1419 1422
1451 1449 1446 1443 1442 1439 1436 1430 1429 1428 1426 1423 1420 1422 1420 1418 1415 1412 1411 1410 1411 1412
1449 1446 1443 1442 1441 1435 1429 1426 1422 1422 1420 1418 1415 1414 1414 1411 1409 1406 1403 1401 1401 1403